STARLINK-1659 (46534 NORAD) Tracking and Keplerian Element Data

This shows tracking and keplerian element data for the satellite.

Feedback or suggestion? Click here.




ElementValue
Catalog46534
NameSTARLINK-1659
Epoch Orbit177
Epoch Day304.91667824
Epoch Year2020
RAAN321.9666
Inclination53.0012
Eccentricity0.0001264
Argument of Perigee75.9099
Mean Anonmoly174.4945
Mean Motion15.6272489
Decay Rate0.00040609
L11 46534U 20070C 20304.91667824 .00040609 00000-0 44759-3 0 9994
L22 46534 53.0012 321.9666 0001264 75.9099 174.4945 15.62724890 1773

Live tracking and technical data element details for STARLINK-1659 (NORAD 46534). STARLINK-1659 can be tracked NOW for your location showing map with azimuth and elevation plus other details from your city location.

Track the satellite on the map from your city or location and see movement details for azimuth, elevation, latitude, longitude, range, height, and movement on the map or in text.







IsCatalogInMostPopularTable: catalog: 46534, numindb: 3
Update: records affected: 1



GetName: 46534 STARLINK-1659

Hit Count: updated at: Sat, 31 Oct 2020 10:10:38 GMT